Location: Moscow
(30.9132°N, 94.8252°W)
Time: 11:48:19
(UTC+00:00)

Cosmos 2016 Rocket - Pass Details

Date: 15 November 2025
Orbit: 946 x 999 km, 83.0° (Epoch: 11 December)

Event Time Altitude Azimuth Distance (km) Brightness Sun altitude
Rises 10:25:03 0° 358° (N) 3,719 7.0 -30.3°
Reaches altitude 10° 10:27:37 10° 1° (N) 2,763 6.3 -29.7°
Maximum altitude 10:33:55 66° 83° (E) 1,070 4.3 -28.4°
Drops below altitude 10° 10:40:07 10° 165° (SSE) 2,720 6.6 -27.0°
Sets 10:42:38 0° 168° (SSE) 3,657 7.2 -26.5°
